Hourly Data Report for December 07, 2021

EUREKA CLIMATE
NUNAVUT
Current Station Operator: ECCC - MSC

79°59'21.000" N
85°56'02.000" W
10.00 m
2401199
71613
NEK

Download Data

Hourly Data (December 2021)
Hourly Data Report for December 7, 2021
TIME
LST
Temp Definition
°C
Dew Point Definition
°C
Rel Hum Definition
%
Precip. Amount Definition
mm

Wind Dir Definition
10's deg

Wind Spd Definition
km/h
Visibility Definition
km
Stn Press Definition
kPa
Hmdx Definition


Wind Chill Definition


Weather Definition


00:00 -34.7 -38.1 71 0.0 12 8   100.10   -43 LegendNANA
01:00 -33.8 -37.1 72 0.0 12 8   100.17   -42 LegendNANA
02:00 -34.5 -37.9 71 0.0 11 4   100.23   -39 LegendNANA
03:00 -34.2 -37.6 71 0.0 14 8   100.28   -43 LegendNANA
04:00 -33.5 -36.8 72 0.0 12 4   100.34   -38 LegendNANA
05:00 -32.5 -35.6 73 0.0 11 5   100.40   -38 LegendNANA
06:00 -30.9 -33.8 75 0.0 14 5   100.44   -37 LegendNANA
07:00 -30.5 -33.4 76 0.0 8 6   100.46   -37 LegendNANA
08:00 -29.2 -32.0 77 0.0 5 4   100.50   -34 LegendNANA
09:00 -28.1 -30.8 78 0.2 12 6   100.51   -34 LegendNANA
10:00 -27.3 -29.9 79 0.2 12 6   100.55   -33 LegendNANA
11:00 -27.2 -29.8 79 0.0 9 8   100.55   -35 LegendNANA
12:00 -27.9 -30.6 78 0.0 5 10   100.57   -37 LegendNANA
13:00 -28.9 -31.7 77 0.0 18 15   100.58   -40 LegendNANA
14:00 -29.7 -32.6 76 0.0 4 6   100.60   -36 LegendNANA
15:00 -30.5 -33.4 75 0.0 35 8   100.58   -39 LegendNANA
16:00 -29.3 -32.1 77 0.0 30 9   100.60   -38 LegendNANA
17:00 -28.4 -31.1 78 0.0 26 13   100.57   -39 LegendNANA
18:00 -27.5 -30.1 79 0.0 11 5   100.53   -33 LegendNANA
19:00 -29.8 -32.7 76 0.0 33 8   100.46   -38 LegendNANA
20:00 -30.4 -33.2 76 0.0 18 19   100.45   -43 LegendNANA
21:00 -30.9 -33.8 75 0.0 14 5   100.41   -37 LegendNANA
22:00 -32.0 -35.1 73 0.0 8 5   100.41   -38 LegendNANA
23:00 -31.7 -34.7 74 0.0 8 4   100.36   -36 LegendNANA

Notes on Data Quality.

Legend

  • E = Estimated
  • M = Missing
  • NA = Not Available*
  • [empty] = Indicates an unobserved value
Date modified: